Weather History for LHKE - June, 2013

Change the Weather History Date:

Monday, June 10, 2013

  Actual Average (LHBP) Record (LHBP)
Temperature  
Mean Temperature 68 °F -  
Max Temperature 78 °F 76 °F 95 °F (2014)
Min Temperature 57 °F 54 °F 46 °F (2005)
Cooling Degree Days 2    
Growing Degree Days 18 (Base 50)    
Moisture  
Dew Point 59 °F    
Average Humidity 74    
Maximum Humidity 94    
Minimum Humidity 53    
Precipitation  
Precipitation 0.00 in - - ()
Sea Level Pressure  
Sea Level Pressure 29.78 in    
Wind  
Wind Speed 6 mph ()    
Max Wind Speed 25 mph    
Max Gust Speed 45 mph    
Visibility 5.8 miles    
Events Rain , Thunderstorm    
Averages and records for this station are not official NWS values.
T = Trace of Precipitation, MM = Missing Value Source: Averaged Metar Reports

Daily Weather History Graph

Daily Weather History Graph

Search for Another Location

Airport or City:

Trip Planner

Search our weather history database for the weather conditions in past years. The results will help you decide how hot, cold, wet, or windy it might be!

Date:

Astronomy

Jun. 10, 2013 Rise Set
Actual Time 4:46 AM CEST 8:34 PM CEST
Civil Twilight 4:07 AM CEST 9:14 PM CEST
Nautical Twilight 3:13 AM CEST 10:07 PM CEST
Astronomical Twilight 1:56 AM CEST 11:25 PM CEST
Moon 6:23 AM CEST (6/10) 9:43 PM CEST (6/10)
Length of Visible Light 17h 07m
Length of Day
15h 48m
Waxing Crescent, 3% of the Moon is Illuminated
Jun 10
Waxing Crescent
Jun 16
First Quarter
Jun 23
Full
Jun 30
Last Quarter
Jul 8
New

Hourly Weather History & Observations

Time (CEST) Temp. Dew Point Humidity Pressure Visibility Wind Dir Wind Speed Gust Speed Precip Events Conditions
12:15 AM 64.4 °F 59.0 °F 83% 29.83 in - SSE 2.2 mph - N/A   Clear
12:45 AM 64.4 °F 59.0 °F 83% 29.83 in - SSE 4.5 mph - N/A   Clear
1:15 AM 62.6 °F 59.0 °F 88% 29.83 in - South 4.5 mph - N/A   Clear
1:45 AM 64.4 °F 59.0 °F 83% 29.83 in - South 6.7 mph - N/A   Clear
2:15 AM 64.4 °F 59.0 °F 83% 29.83 in - SSE 6.7 mph - N/A   Clear
2:45 AM 64.4 °F 60.8 °F 88% 29.83 in - SSW 4.5 mph - N/A   Clear
3:15 AM 66.2 °F 60.8 °F 83% 29.83 in 6.2 mi SSW 6.7 mph - N/A Rain Light Rain Showers
3:45 AM - - N/A% - 3.1 mi SSW 6.7 mph - N/A Rain Rain Showers
4:06 AM 64.4 °F 60.8 °F 88% 29.80 in 6.2 mi SSW 6.7 mph - N/A   Overcast
4:15 AM 64.4 °F 60.8 °F 88% 29.80 in 6.2 mi SSW 4.5 mph - N/A   Overcast
4:45 AM 66.2 °F 60.8 °F 83% 29.80 in 6.2 mi SSW 6.7 mph - N/A   Overcast
5:15 AM 64.4 °F 59.0 °F 83% 29.80 in - SSW 4.5 mph - N/A   Clear
5:45 AM 64.4 °F 59.0 °F 83% 29.80 in 6.2 mi SW 4.5 mph - N/A   Mostly Cloudy
6:15 AM 64.4 °F 59.0 °F 83% 29.80 in - SW 4.5 mph - N/A   Clear
6:45 AM - - N/A% - 3.1 mi SW 4.5 mph - N/A Rain Rain Showers
7:15 AM 68.0 °F 60.8 °F 78% 29.80 in - SW 4.5 mph - N/A   Clear
7:45 AM 71.6 °F 59.0 °F 64% 29.80 in 6.2 mi SW 4.5 mph - N/A   Mostly Cloudy
8:15 AM 71.6 °F 60.8 °F 69% 29.83 in 6.2 mi SW 6.7 mph - N/A   Mostly Cloudy
8:40 AM 69.8 °F 60.8 °F 73% 29.83 in 6.2 mi South 4.5 mph - N/A Rain Light Rain Showers
8:45 AM 69.8 °F 60.8 °F 73% 29.83 in 6.2 mi South 4.5 mph - N/A   Mostly Cloudy
9:15 AM 69.8 °F 60.8 °F 73% 29.80 in 6.2 mi South 2.2 mph - N/A   Mostly Cloudy
9:45 AM - - N/A% - 1.9 mi SSW 8.9 mph - N/A Rain , Thunderstorm Rain Showers
10:09 AM 73.4 °F 60.8 °F 65% 29.80 in 6.2 mi South 2.2 mph - N/A Thunderstorm Thunderstorm
10:15 AM 75.2 °F 59.0 °F 57% 29.80 in 6.2 mi South 4.5 mph - N/A Thunderstorm Thunderstorm
10:27 AM 71.6 °F 59.0 °F 64% 29.83 in 6.2 mi SSW 4.5 mph - N/A Rain , Thunderstorm Light Thunderstorms and Rain
10:45 AM 68.0 °F 59.0 °F 73% 29.80 in 6.2 mi South 4.5 mph - N/A Rain , Thunderstorm Light Thunderstorms and Rain
10:59 AM 69.8 °F 60.8 °F 73% 29.80 in 6.2 mi SSE 4.5 mph - N/A Rain Light Rain Showers
11:15 AM 68.0 °F 59.0 °F 73% 29.83 in 6.2 mi SSE 6.7 mph - N/A Rain Light Rain Showers
11:33 AM 68.0 °F 60.8 °F 78% 29.80 in 6.2 mi SE 4.5 mph - N/A   Mostly Cloudy
11:45 AM 69.8 °F 60.8 °F 73% 29.80 in 6.2 mi SSE 4.5 mph - N/A   Mostly Cloudy
12:15 PM 73.4 °F 59.0 °F 61% 29.77 in 6.2 mi SE 6.7 mph - N/A   Mostly Cloudy
12:45 PM - - N/A% - 1.9 mi SE 8.9 mph - N/A Rain , Thunderstorm Rain Showers
1:15 PM 77.0 °F 60.8 °F 57% 29.77 in 6.2 mi SE 8.9 mph - N/A   Mostly Cloudy
1:45 PM 77.0 °F 60.8 °F 57% 29.77 in 6.2 mi SE 11.2 mph - N/A   Mostly Cloudy
2:15 PM 77.0 °F 62.6 °F 61% 29.74 in 6.2 mi SE 11.2 mph - N/A   Mostly Cloudy
2:45 PM 77.0 °F 60.8 °F 57% 29.74 in 6.2 mi SSE 8.9 mph - N/A   Mostly Cloudy
3:15 PM 77.0 °F 60.8 °F 57% 29.71 in 6.2 mi SSE 8.9 mph - N/A   Mostly Cloudy
3:45 PM - - N/A% - - SSW 6.7 mph - N/A   Mostly Cloudy
4:15 PM 78.8 °F 60.8 °F 54% 29.71 in 6.2 mi South 6.7 mph - N/A   Mostly Cloudy
4:45 PM 77.0 °F 59.0 °F 54% 29.71 in 6.2 mi SSW 11.2 mph - N/A   Mostly Cloudy
5:15 PM 75.2 °F 57.2 °F 53% 29.71 in 6.2 mi SSW 8.9 mph - N/A   Mostly Cloudy
5:21 PM 75.2 °F 57.2 °F 53% 29.71 in 6.2 mi SSW 8.9 mph 31.3 mph N/A   Squalls
5:29 PM 71.6 °F 53.6 °F 53% 29.74 in 6.2 mi WSW 20.1 mph 42.5 mph N/A   Mostly Cloudy
5:30 PM - - N/A% - 6.2 mi SSW 8.9 mph - N/A   Mostly Cloudy
5:45 PM 68.0 °F 53.6 °F 60% 29.74 in 6.2 mi West 24.6 mph 44.7 mph N/A   Mostly Cloudy
6:11 PM 64.4 °F 57.2 °F 77% 29.74 in 6.2 mi West 15.7 mph - N/A Thunderstorm Thunderstorm
6:15 PM 64.4 °F 57.2 °F 77% 29.74 in 6.2 mi WNW 15.7 mph - N/A Thunderstorm Thunderstorm
6:28 PM 64.4 °F 57.2 °F 77% 29.74 in 6.2 mi West 13.4 mph 24.6 mph N/A Rain , Thunderstorm Light Thunderstorms and Rain
6:45 PM - - N/A% - 6.2 mi SW 8.9 mph - N/A   Mostly Cloudy
7:14 PM 64.4 °F 57.2 °F 77% 29.77 in 6.2 mi South 6.7 mph - N/A Rain Light Rain Showers
7:15 PM 64.4 °F 57.2 °F 77% 29.77 in 6.2 mi South 6.7 mph - N/A Rain Light Rain Showers
7:45 PM 62.6 °F 57.2 °F 82% 29.74 in 6.2 mi SSW 4.5 mph - N/A   Mostly Cloudy
8:15 PM 62.6 °F 57.2 °F 82% 29.74 in 6.2 mi WSW 6.7 mph - N/A   Mostly Cloudy
8:45 PM 60.8 °F 57.2 °F 88% 29.74 in 6.2 mi NNW 2.2 mph - N/A   Mostly Cloudy
9:15 PM 60.8 °F 55.4 °F 82% 29.77 in - SW 4.5 mph - N/A   Clear
9:45 PM - - N/A% - 3.1 mi SSW 6.7 mph - N/A Rain , Thunderstorm Rain Showers
10:15 PM 59.0 °F 55.4 °F 88% 29.80 in - Calm Calm - N/A   Clear
10:45 PM 59.0 °F 55.4 °F 88% 29.80 in - East 2.2 mph - N/A   Clear
11:15 PM 57.2 °F 55.4 °F 94% 29.80 in - ENE 4.5 mph - N/A   Clear
11:45 PM 59.0 °F 55.4 °F 88% 29.80 in - ESE 4.5 mph - N/A   Clear